This demonstration page uses our WeatherBlox Daily Observations layout. Learn more.

Left ArrowRight Arrow

53.62937, 11.41316

Hourly Observations for June 30, 2017

Temp ( °F °C ) Dew Point ( °F °C ) Humidity (%) Winds ( mph kmh ) Pressure ( in mb ) Visibility ( mi km ) Precip ( " mm )
6:20 am 06:20 Cloudy with Light Rain 59 15 59 15 100 100 W 15 24 29.38 995 6 9 N/A
6:50 am 06:50 Cloudy with Light Rain 59 15 57 14 94 94 WSW 17 28 29.38 995 6 9 N/A
7:20 am 07:20 Cloudy with Light Rain 57 14 57 14 100 100 W 15 24 29.38 995 30 48 N/A
7:50 am 07:50 Cloudy with Light Rain 59 15 57 14 94 94 WSW 13 20 29.41 996 4 7 N/A
8:20 am 08:20 Cloudy with Light Rain 57 14 57 14 100 100 WSW 14 22 29.41 996 4 6 N/A
8:50 am 08:50 Cloudy with Light Rain 57 14 57 14 100 100 WSW 12 19 29.41 996 4 7 N/A
9:20 am 09:20 Cloudy with Light Rain 59 15 57 14 94 94 W 14 22 29.44 997 30 48 N/A
9:50 am 09:50 Cloudy with Light Rain 59 15 57 14 94 94 WSW 16 26 29.44 997 5 8 N/A
10:20 am 10:20 Cloudy with Light Rain 59 15 57 14 94 94 WSW 18 30 29.44 997 30 48 N/A
10:34 am 10:34 Cloudy with Light Rain 59 15 57 14 94 94 WSW 18 30 29.44 997 30 48 N/A
10:50 am 10:50 Cloudy with Light Rain 59 15 57 14 94 94 WSW 17 28 29.44 997 30 48 N/A
11:20 am 11:20 Cloudy with Light Rain 59 15 59 15 100 100 WSW 17 28 29.44 997 30 48 N/A
11:50 am 11:50 Cloudy with Light Rain 59 15 59 15 100 100 WSW 20 31 29.44 997 30 48 N/A
12:20 pm 12:20 Cloudy with Light Rain 59 15 57 14 94 94 WSW 18 30 29.47 998 30 48 N/A
12:50 pm 12:50 Cloudy with Light Rain 59 15 59 15 100 100 WSW 15 24 29.47 998 30 48 N/A
1:20 pm 13:20 Cloudy with Light Rain 59 15 59 15 100 100 WSW 15 24 29.50 999 30 48 N/A
1:50 pm 13:50 Cloudy with Light Rain 61 16 59 15 94 94 WSW 16 26 29.50 999 30 48 N/A
2:20 pm 14:20 Mostly Cloudy with Light Rain 61 16 59 15 94 94 WSW 16 26 29.50 999 30 48 N/A
2:50 pm 14:50 Cloudy with Light Rain 61 16 59 15 94 94 WSW 17 28 29.50 999 30 48 N/A
3:20 pm 15:20 Cloudy with Light Rain 59 15 59 15 100 100 WSW 15 24 29.53 1000 30 48 N/A
3:50 pm 15:50 Cloudy with Light Rain 61 16 59 15 94 94 WSW 14 22 29.53 1000 30 48 N/A
4:20 pm 16:20 Cloudy with Light Rain 61 16 59 15 94 94 WSW 14 22 29.53 1000 30 48 N/A
4:50 pm 16:50 Cloudy with Light Rain 59 15 59 15 100 100 WSW 14 22 29.53 1000 30 48 N/A
5:20 pm 17:20 Cloudy with Light Rain 59 15 57 14 94 94 SW 15 24 29.56 1001 30 48 N/A
5:50 pm 17:50 Cloudy with Light Rain 59 15 57 14 94 94 WSW 17 28 29.56 1001 30 48 N/A

Powered by AerisWeather